| time (UTC) | temp C | wind direction | speed KPH | gust KPH | rain 1hr cm | rain 24hr cm | rain mn cm | humidity % | barometer mb |
| 20260504030040 | 7 | 176 | 3.2 | 6.4 | 0.00 | 0.00 | 0.00 | 62 | 1015.5 |
| 20260504024545 | 7 | 185 | 3.2 | 8.0 | 0.00 | 0.00 | 0.00 | 65 | 1015.7 |
| 20260504023039 | 7 | 204 | 0.0 | 4.8 | 0.00 | 0.00 | 0.00 | 65 | 1015.6 |
| 20260504021540 | 7 | 204 | 0.0 | 1.6 | 0.00 | 0.00 | 0.00 | 65 | 1015.6 |
| 20260504020037 | 7 | 204 | 0.0 | 3.2 | 0.00 | 0.00 | 0.00 | 64 | 1015.7 |
| 20260504014540 | 7 | 205 | 1.6 | 4.8 | 0.00 | 0.00 | 0.00 | 64 | 1015.7 |
| 20260504013043 | 7 | 218 | 0.0 | 0.0 | 0.00 | 0.00 | 0.00 | 65 | 1015.5 |
| 20260504011537 | 8 | 218 | 0.0 | 0.0 | 0.00 | 0.00 | 0.00 | 64 | 1015.4 |
| 20260504010047 | 8 | 213 | 0.0 | 0.0 | 0.00 | 0.00 | 0.00 | 62 | 1015.5 |
| 20260504004536 | 9 | 213 | 0.0 | 0.0 | 0.00 | 0.00 | 0.00 | 60 | 1015.4 |
| 20260504003035 | 10 | 209 | 0.0 | 1.6 | 0.00 | 0.00 | 0.00 | 58 | 1015.4 |
| 20260504001541 | 11 | 209 | 1.6 | 8.0 | 0.00 | 0.00 | 0.00 | 54 | 1015.5 |
| 20260504000039 | 11 | 201 | 4.8 | 16.1 | 0.00 | 0.00 | 0.00 | 51 | 1015.4 |
| 20260503234534 | 12 | 195 | 3.2 | 12.9 | 0.00 | 0.00 | 0.00 | 51 | 1015.4 |
| 20260503233034 | 12 | 220 | 6.4 | 16.1 | 0.00 | 0.00 | 0.00 | 50 | 1015.3 |
| 20260503231533 | 12 | 234 | 4.8 | 14.5 | 0.00 | 0.00 | 0.00 | 50 | 1015.2 |
| 20260503230032 | 13 | 222 | 3.2 | 12.9 | 0.00 | 0.00 | 0.00 | 49 | 1015.3 |
| 20260503224532 | 13 | 246 | 3.2 | 14.5 | 0.00 | 0.00 | 0.00 | 49 | 1015.3 |
| 20260503223032 | 14 | 228 | 1.6 | 12.9 | 0.00 | 0.00 | 0.00 | 47 | 1015.4 |
| 20260503221538 | 14 | 226 | 9.7 | 19.3 | 0.00 | 0.00 | 0.00 | 46 | 1015.5 |
| 20260503220031 | 14 | 230 | 3.2 | 17.7 | 0.00 | 0.00 | 0.00 | 45 | 1015.4 |
| 20260503214530 | 14 | 218 | 8.0 | 16.1 | 0.00 | 0.00 | 0.00 | 45 | 1015.3 |
| 20260503213035 | 15 | 258 | 3.2 | 14.5 | 0.00 | 0.00 | 0.00 | 47 | 1015.3 |
| 20260503211529 | 14 | 209 | 4.8 | 16.1 | 0.00 | 0.00 | 0.00 | 48 | 1015.4 |
| 20260503210027 | 13 | 201 | 6.4 | 17.7 | 0.00 | 0.00 | 0.00 | 48 | 1015.4 |
| 20260503204527 | 15 | 225 | 4.8 | 17.7 | 0.00 | 0.00 | 0.00 | 48 | 1015.6 |
| 20260503203025 | 15 | 201 | 3.2 | 22.5 | 0.00 | 0.00 | 0.00 | 45 | 1015.7 |
| 20260503201529 | 14 | 237 | 3.2 | 14.5 | 0.00 | 0.00 | 0.00 | 48 | 1015.9 |
| 20260503200029 | 15 | 237 | 3.2 | 8.0 | 0.00 | 0.00 | 0.00 | 46 | 1016.1 |
| 20260503194526 | 15 | 231 | 3.2 | 11.3 | 0.00 | 0.00 | 0.00 | 50 | 1016.5 |
| 20260503193018 | 14 | 216 | 3.2 | 20.9 | 0.00 | 0.00 | 0.00 | 51 | 1016.7 |
| 20260503191521 | 13 | 272 | 3.2 | 14.5 | 0.00 | 0.00 | 0.00 | 52 | 1016.8 |
| 20260503190023 | 14 | 271 | 4.8 | 22.5 | 0.00 | 0.00 | 0.00 | 54 | 1017.1 |
| 20260503184521 | 14 | 335 | 3.2 | 16.1 | 0.00 | 0.00 | 0.00 | 54 | 1017.3 |
| 20260503183023 | 14 | 176 | 1.6 | 11.3 | 0.00 | 0.00 | 0.00 | 58 | 1017.5 |
| 20260503181524 | 14 | 147 | 3.2 | 22.5 | 0.00 | 0.00 | 0.00 | 51 | 1017.7 |
| 20260503180009 | 13 | 227 | 4.8 | 14.5 | 0.00 | 0.00 | 0.00 | 59 | 1017.8 |
| 20260503174506 | 13 | 227 | 4.8 | 12.9 | 0.00 | 0.00 | 0.00 | 52 | 1018.1 |
| 20260503173018 | 12 | 220 | 3.2 | 24.1 | 0.00 | 0.00 | 0.00 | 57 | 1018.1 |
| 20260503171504 | 13 | 217 | 3.2 | 16.1 | 0.00 | 0.00 | 0.00 | 52 | 1018.3 |
| 20260503100106 | -1 | 255 | 0.0 | 0.0 | 0.00 | 0.00 | 0.00 | 86 | 1018.8 |
| 20260503081544 | -1 | 253 | 0.0 | 0.0 | 0.00 | 0.00 | 0.00 | 84 | 1018.6 |
| 20260503071537 | 0 | 252 | 0.0 | 0.0 | 0.00 | 0.00 | 0.00 | 83 | 1018.3 |
| 20260503054524 | 1 | 254 | 0.0 | 0.0 | 0.00 | 0.00 | 0.00 | 83 | 1018.5 |
| 20260503053034 | 1 | 255 | 0.0 | 0.0 | 0.00 | 0.00 | 0.00 | 82 | 1018.6 |
| 20260503051520 | 1 | 254 | 0.0 | 3.2 | 0.00 | 0.00 | 0.00 | 81 | 1018.7 |
| 20260503050019 | 1 | 251 | 0.0 | 1.6 | 0.00 | 0.00 | 0.00 | 81 | 1018.8 |
| 20260503044531 | 1 | 274 | 0.0 | 4.8 | 0.00 | 0.00 | 0.00 | 81 | 1018.8 |
| 20260503043014 | 1 | 264 | 0.0 | 3.2 | 0.00 | 0.00 | 0.00 | 81 | 1018.9 |
| 20260503041514 | 1 | 261 | 0.0 | 4.8 | 0.00 | 0.00 | 0.00 | 80 | 1018.8 |
| 20260503040016 | 1 | 272 | 0.0 | 3.2 | 0.00 | 0.00 | 0.00 | 80 | 1018.9 |
| 20260503034512 | 2 | 276 | 0.0 | 6.4 | 0.00 | 0.00 | 0.00 | 79 | 1018.9 |
| 20260503033013 | 2 | 242 | 0.0 | 3.2 | 0.00 | 0.00 | 0.00 | 79 | 1019.0 |
| 20260503031510 | 2 | 257 | 0.0 | 4.8 | 0.00 | 0.00 | 0.00 | 79 | 1019.0 |